TimeMDT,TemperatureF,Dew PointF,Humidity,Sea Level PressureIn,VisibilityMPH,Wind Direction,Wind SpeedMPH,Gust SpeedMPH,PrecipitationIn,Events,Conditions,WindDirDegrees,DateUTC
12:15 AM,59.0,46.4,63,30.05,10.0,South,5.8,-,N/A,,Clear,180,2012-10-10 06:15:00
12:35 AM,57.2,46.4,67,30.05,10.0,South,8.1,-,N/A,,Clear,190,2012-10-10 06:35:00
12:55 AM,57.2,48.2,72,30.04,10.0,South,8.1,-,N/A,,Clear,190,2012-10-10 06:55:00
1:15 AM,57.2,48.2,72,30.05,10.0,South,3.5,-,N/A,,Clear,190,2012-10-10 07:15:00
1:35 AM,57.2,48.2,72,30.06,10.0,Calm,Calm,-,N/A,,Clear,0,2012-10-10 07:35:00
1:55 AM,59.0,50.0,72,30.09,10.0,NNE,11.5,-,N/A,,Clear,20,2012-10-10 07:55:00
2:15 AM,59.0,48.2,67,30.10,10.0,NE,11.5,-,N/A,,Clear,40,2012-10-10 08:15:00
2:35 AM,57.2,44.6,63,30.10,10.0,NE,12.7,-,N/A,,Clear,40,2012-10-10 08:35:00
2:55 AM,57.2,41.0,55,30.11,10.0,NNE,13.8,-,N/A,,Clear,30,2012-10-10 08:55:00
3:15 AM,55.4,41.0,58,30.12,10.0,NNE,11.5,-,N/A,,Clear,30,2012-10-10 09:15:00
3:35 AM,55.4,39.2,54,30.11,10.0,NNE,13.8,21.9,N/A,,Clear,30,2012-10-10 09:35:00
3:55 AM,55.4,41.0,58,30.12,10.0,NNE,13.8,-,N/A,,Clear,20,2012-10-10 09:55:00
4:15 AM,53.6,41.0,62,30.14,10.0,NNE,13.8,-,N/A,,Clear,20,2012-10-10 10:15:00
4:35 AM,51.8,41.0,67,30.15,10.0,NNE,13.8,20.7,N/A,,Clear,20,2012-10-10 10:35:00
4:55 AM,50.0,41.0,71,30.15,10.0,NNE,12.7,19.6,N/A,,Clear,20,2012-10-10 10:55:00
5:50 AM,48.2,39.2,71,30.17,10.0,North,15.0,-,N/A,,Clear,10,2012-10-10 11:50:00
6:50 AM,46.4,39.2,76,30.20,10.0,North,12.7,-,N/A,,Clear,10,2012-10-10 12:50:00
7:50 AM,48.2,39.2,71,30.23,10.0,North,16.1,-,N/A,,Clear,360,2012-10-10 13:50:00
8:34 AM,50.0,41.0,71,30.25,10.0,NNE,16.1,-,N/A,,Mostly Cloudy,20,2012-10-10 14:34:00
8:50 AM,50.0,41.0,71,30.26,10.0,North,17.3,-,N/A,,Mostly Cloudy,10,2012-10-10 14:50:00
9:50 AM,51.8,41.0,67,30.27,10.0,North,15.0,-,N/A,,Overcast,10,2012-10-10 15:50:00
10:50 AM,55.4,44.6,67,30.27,10.0,North,9.2,-,N/A,,Overcast,10,2012-10-10 16:50:00
11:50 AM,59.0,46.4,63,30.26,10.0,NNE,8.1,-,N/A,,Scattered Clouds,20,2012-10-10 17:50:00
12:50 PM,62.6,46.4,55,30.23,10.0,NE,6.9,-,N/A,,Clear,50,2012-10-10 18:50:00
1:55 PM,64.4,48.2,56,30.18,10.0,ENE,6.9,-,N/A,,Clear,60,2012-10-10 19:55:00
2:50 PM,66.2,48.2,52,30.15,10.0,NE,5.8,-,N/A,,Clear,50,2012-10-10 20:50:00
3:50 PM,66.2,50.0,56,30.13,10.0,Variable,5.8,-,N/A,,Clear,0,2012-10-10 21:50:00
4:50 PM,68.0,50.0,52,30.13,10.0,ESE,8.1,-,N/A,,Clear,110,2012-10-10 22:50:00
5:50 PM,66.2,50.0,56,30.12,10.0,ESE,9.2,-,N/A,,Clear,110,2012-10-10 23:50:00
6:15 PM,64.4,51.8,64,30.12,10.0,ESE,8.1,-,N/A,,Clear,120,2012-10-11 00:15:00
6:35 PM,64.4,51.8,64,30.13,10.0,ESE,8.1,-,N/A,,Clear,120,2012-10-11 00:35:00
6:55 PM,62.6,51.8,68,30.13,10.0,SE,6.9,-,N/A,,Clear,130,2012-10-11 00:55:00
7:15 PM,60.8,50.0,68,30.13,10.0,SE,6.9,-,N/A,,Clear,130,2012-10-11 01:15:00
7:35 PM,60.8,50.0,68,30.14,10.0,SE,6.9,-,N/A,,Clear,130,2012-10-11 01:35:00
8:15 PM,57.2,51.8,82,30.15,10.0,SE,6.9,-,N/A,,Clear,130,2012-10-11 02:15:00
8:35 PM,57.2,51.8,82,30.15,10.0,ESE,4.6,-,N/A,,Clear,120,2012-10-11 02:35:00
8:55 PM,57.2,51.8,82,30.15,10.0,SE,4.6,-,N/A,,Clear,130,2012-10-11 02:55:00
9:15 PM,55.4,50.0,82,30.15,10.0,SE,5.8,-,N/A,,Clear,130,2012-10-11 03:15:00
9:35 PM,55.4,51.8,88,30.15,10.0,ESE,5.8,-,N/A,,Mostly Cloudy,120,2012-10-11 03:35:00
9:55 PM,57.2,51.8,82,30.16,10.0,ESE,6.9,-,N/A,,Overcast,120,2012-10-11 03:55:00
10:15 PM,59.0,51.8,77,30.16,10.0,ESE,8.1,-,N/A,,Overcast,120,2012-10-11 04:15:00
10:35 PM,59.0,51.8,77,30.16,10.0,ESE,9.2,-,N/A,,Overcast,120,2012-10-11 04:35:00
10:55 PM,59.0,51.8,77,30.15,10.0,ESE,9.2,-,N/A,,Overcast,120,2012-10-11 04:55:00
11:15 PM,57.2,51.8,82,30.15,10.0,ESE,10.4,-,N/A,,Overcast,120,2012-10-11 05:15:00
11:35 PM,57.2,51.8,82,30.15,10.0,ESE,9.2,-,N/A,,Overcast,110,2012-10-11 05:35:00
11:55 PM,57.2,50.0,77,30.15,10.0,ESE,10.4,-,N/A,,Overcast,120,2012-10-11 05:55:00